Location: San Martino di Castrozza
(46.2667°N, 11.8000°E)
Time: 08:08:20
(UTC+00:00)

Okean 2 Rocket - Pass Details

Date: 23 April 2021
Orbit: 616 x 642 km, 82.5° (Epoch: 07 May)

Event Time Altitude Azimuth Distance (km) Brightness Sun altitude
Rises 02:36:35 0° 345° (NNW) 2,920 6.8 -15.3°
Reaches altitude 10° 02:38:53 10° 339° (NNW) 2,004 5.9 -15.0°
Maximum altitude 02:43:07 46° 267° (W) 844 3.4 -14.4°
Enters shadow 02:46:13 17° 200° (SSW) 1,574 4.7 -14.0°
